CW4784 Weather Reports


Display with metric or nautical units.
time (UTC)temp
F
wind
direction
speed
MPH
gust
MPH
rain 1hr
in
rain 24hr
in
rain mn
in
humidity
%
barometer
mb
20260507004006 37 360 8.0 13.0 0.00 0.28 0.20 78 1020.8
20260507003507 37 360 10.0 14.0 0.00 0.28 0.20 78 1020.9
20260507003002 38 360 11.0 14.0 0.00 0.28 0.20 77 1020.9
20260507002502 39 12 10.0 13.0 0.00 0.28 0.20 75 1020.8
20260507002003 40 360 8.0 12.0 0.00 0.28 0.20 72 1020.8
20260507001504 40 360 5.0 8.0 0.00 0.28 0.20 72 1020.9
20260507001003 40 360 3.0 7.0 0.00 0.28 0.20 74 1021.0
20260507000503 39 15 3.0 5.0 0.00 0.29 0.20 74 1021.1
20260507000008 38 16 2.0 5.0 0.00 0.30 0.20 72 1020.9
20260506235504 39 16 2.0 5.0 0.00 0.31 0.20 72 1020.9
20260506235004 38 15 1.0 4.0 0.00 0.32 0.20 72 1020.9
20260506234513 39 17 2.0 5.0 0.00 0.34 0.20 73 1020.9
20260506234007 39 15 2.0 5.0 0.00 0.34 0.20 69 1020.9
20260506233504 41 16 1.0 4.0 0.00 0.35 0.20 73 1020.9
20260506233010 41 360 0.0 6.0 0.00 0.36 0.20 74 1020.9
20260506232502 41 360 2.0 6.0 0.00 0.36 0.20 72 1020.9
20260506232002 40 360 3.0 6.0 0.00 0.36 0.20 69 1020.6
20260506231508 41 360 0.0 9.0 0.00 0.36 0.20 73 1020.6
20260506231004 42 360 2.0 9.0 0.00 0.36 0.20 74 1020.5
20260506230502 41 360 3.0 8.0 0.00 0.36 0.20 75 1020.4
20260506230005 41 360 3.0 8.0 0.00 0.36 0.20 79 1020.5
20260506225504 40 16 4.0 10.0 0.00 0.36 0.20 79 1020.5
20260506225005 40 9 5.0 10.0 0.00 0.36 0.20 81 1020.5
20260506224516 39 360 5.0 10.0 0.00 0.36 0.20 82 1020.5
20260506224004 38 360 6.0 9.0 0.00 0.37 0.20 81 1020.6
20260506223506 39 360 3.0 9.0 0.00 0.37 0.20 81 1020.5
20260506223012 38 360 5.0 10.0 0.00 0.37 0.20 81 1020.5
20260506222504 39 18 5.0 11.0 0.00 0.37 0.20 79 1020.6
20260506222003 40 15 8.0 11.0 0.00 0.37 0.20 80 1020.7
20260506221512 40 17 6.0 11.0 0.00 0.37 0.20 83 1020.7
20260506221005 38 16 7.0 10.0 0.00 0.37 0.20 83 1020.6
20260506220508 38 16 6.0 11.0 0.00 0.37 0.20 84 1020.5
20260506220028 37 16 6.0 11.0 0.00 0.37 0.20 84 1020.4
20260506215502 37 15 4.0 11.0 0.00 0.37 0.20 85 1020.7
20260506215003 37 16 8.0 11.0 0.00 0.37 0.20 85 1020.6
20260506214506 36 16 5.0 11.0 0.00 0.37 0.20 85 1020.5
20260506214005 37 16 8.0 11.0 0.00 0.37 0.20 85 1020.6
20260506213505 37 15 6.0 11.0 0.00 0.37 0.20 87 1020.6
20260506213011 36 16 6.0 12.0 0.00 0.37 0.20 87 1020.6
20260506212504 36 16 8.0 12.0 0.01 0.37 0.20 87 1020.7
20260506212006 35 5 8.0 12.0 0.01 0.37 0.20 87 1020.6
20260506211517 35 16 7.0 12.0 0.02 0.37 0.20 87 1020.9
20260506211009 35 16 7.0 11.0 0.03 0.37 0.20 88 1021.0
20260506210506 35 17 8.0 10.0 0.03 0.37 0.20 88 1021.1
20260506210008 35 16 6.0 10.0 0.04 0.37 0.20 88 1021.3
20260506205507 35 16 5.0 10.0 0.05 0.37 0.20 89 1021.1
20260506205008 35 16 6.0 12.0 0.06 0.37 0.20 90 1020.9
20260506204516 34 16 8.0 13.0 0.06 0.37 0.20 90 1020.7
20260506204004 34 5 9.0 13.0 0.06 0.37 0.20 90 1020.4
20260506203510 34 5 8.0 12.0 0.06 0.37 0.20 90 1020.4
20260506203008 34 16 7.0 12.0 0.06 0.37 0.20 91 1020.4
20260506202503 34 5 8.0 13.0 0.05 0.36 0.19 91 1020.4
20260506202004 34 16 9.0 13.0 0.05 0.36 0.19 92 1020.4
20260506201514 34 5 7.0 9.0 0.04 0.35 0.18 92 1020.5
20260506201009 34 16 5.0 8.0 0.03 0.34 0.17 93 1020.6
20260506200505 34 360 4.0 7.0 0.03 0.34 0.17 93 1020.7
20260506200017 33 16 0.0 1.0 0.02 0.33 0.16 93 1020.8
20260506195503 33 16 0.0 1.0 0.01 0.32 0.15 93 1020.6
20260506195007 32 16 0.0 5.0 0.00 0.31 0.14 93 1020.6
20260506194514 32 16 0.0 5.0 0.00 0.31 0.14 93 1020.6
20260506194011 31 16 2.0 8.0 0.00 0.31 0.14 93 1020.7
20260506193506 31 16 3.0 8.0 0.00 0.31 0.14 93 1020.8
20260506193010 31 16 4.0 9.0 0.00 0.31 0.14 93 1021.1
20260506192507 31 16 4.0 9.0 0.00 0.31 0.14 93 1020.9
20260506192008 31 16 5.0 9.0 0.00 0.31 0.14 93 1020.8
20260506191510 31 16 6.0 10.0 0.00 0.31 0.14 93 1020.6
20260506191004 31 16 6.0 10.0 0.00 0.31 0.14 93 1020.4
20260506190505 31 17 7.0 10.0 0.00 0.31 0.14 93 1020.3
20260506190012 31 360 5.0 8.0 0.00 0.31 0.14 93 1020.4
20260506185507 31 360 4.0 8.0 0.00 0.31 0.14 93 1020.6
20260506185006 31 360 4.0 10.0 0.00 0.31 0.14 93 1020.6
20260506184513 31 360 6.0 11.0 0.00 0.31 0.14 93 1020.5
20260506184006 31 360 7.0 11.0 0.00 0.31 0.14 93 1020.2
20260506183508 31 360 6.0 13.0 0.00 0.31 0.14 93 1020.1
20260506183015 31 360 9.0 13.0 0.00 0.31 0.14 93 1020.3
20260506182507 31 360 9.0 14.0 0.01 0.31 0.14 93 1020.4
20260506182007 31 360 8.0 16.0 0.01 0.31 0.14 93 1020.2
20260506181513 31 360 10.0 16.0 0.01 0.31 0.14 93 1020.2
20260506181008 31 360 8.0 14.0 0.01 0.31 0.14 92 1020.2
20260506180507 31 360 10.0 15.0 0.01 0.31 0.14 92 1020.3
20260506180005 31 360 10.0 16.0 0.02 0.31 0.14 92 1020.3
20260506175504 31 360 11.0 16.0 0.02 0.31 0.14 92 1020.1
20260506175004 32 360 11.0 18.0 0.02 0.31 0.14 92 1020.1
20260506174503 32 360 12.0 18.0 0.02 0.31 0.14 92 1020.2
20260506174003 32 360 12.0 18.0 0.03 0.31 0.14 92 1020.2
20260506173504 32 360 13.0 18.0 0.03 0.31 0.14 92 1020.2
20260506173004 32 360 10.0 18.0 0.03 0.31 0.14 92 1020.2
20260506172503 32 360 12.0 18.0 0.03 0.30 0.13 93 1020.1
20260506172002 32 360 10.0 15.0 0.03 0.30 0.13 92 1020.1
20260506171504 32 360 12.0 15.0 0.04 0.30 0.13 93 1019.8
20260506171008 32 360 9.0 17.0 0.04 0.30 0.13 93 1019.7
20260506170501 33 360 10.0 17.0 0.04 0.30 0.13 92 1019.4
20260506170004 33 360 9.0 15.0 0.04 0.29 0.12 92 1019.2
20260506165503 33 360 10.0 15.0 0.04 0.29 0.12 92 1019.3
20260506165003 33 360 11.0 15.0 0.05 0.29 0.12 92 1019.2
20260506164508 33 360 10.0 14.0 0.05 0.29 0.12 93 1019.1
20260506164008 33 360 8.0 14.0 0.05 0.28 0.11 93 1018.9
20260506163506 33 360 8.0 14.0 0.06 0.28 0.11 93 1018.9
20260506163006 33 360 8.0 13.0 0.06 0.28 0.11 93 1018.8
20260506162505 33 360 10.0 13.0 0.06 0.27 0.10 93 1018.8
20260506162003 33 360 7.0 15.0 0.06 0.27 0.10 93 1018.8
20260506161517 33 360 8.0 15.0 0.05 0.26 0.09 93 1018.7
20260506161003 33 360 9.0 15.0 0.05 0.26 0.09 93 1018.8
20260506160507 32 360 10.0 15.0 0.05 0.26 0.09 93 1018.6
20260506160004 32 360 10.0 14.0 0.04 0.25 0.08 93 1018.6
20260506155503 32 360 7.0 11.0 0.04 0.25 0.08 93 1018.6
20260506155001 33 360 7.0 11.0 0.03 0.24 0.07 93 1018.7
20260506154514 33 360 7.0 12.0 0.03 0.24 0.07 93 1018.7
20260506154006 32 360 9.0 12.0 0.02 0.23 0.06 93 1018.6
20260506153505 32 360 10.0 12.0 0.01 0.22 0.05 93 1018.5
20260506153004 32 360 5.0 9.0 0.01 0.22 0.05 93 1018.5
20260506152504 32 360 6.0 9.0 0.00 0.21 0.04 93 1018.6
20260506152012 32 360 4.0 6.0 0.00 0.21 0.04 93 1018.6
20260506151505 32 360 4.0 8.0 0.00 0.21 0.04 93 1018.6
20260506151003 31 360 4.0 9.0 0.00 0.21 0.04 93 1018.6
20260506150506 31 360 5.0 9.0 0.00 0.21 0.04 93 1018.6
20260506150004 31 360 4.0 9.0 0.00 0.21 0.04 93 1018.6
20260506145505 31 360 5.0 9.0 0.00 0.21 0.04 93 1018.7
20260506145005 31 360 6.0 9.0 0.00 0.21 0.04 93 1018.7
20260506144504 31 360 6.0 9.0 0.00 0.21 0.04 93 1018.7
20260506144008 31 360 5.0 11.0 0.00 0.21 0.04 93 1018.6
20260506143503 31 360 7.0 11.0 0.00 0.21 0.04 93 1018.6
20260506143009 31 360 8.0 11.0 0.00 0.21 0.04 93 1018.5
20260506142507 31 360 6.0 11.0 0.00 0.21 0.04 93 1018.6
20260506142011 31 360 7.0 12.0 0.00 0.21 0.04 93 1018.6
20260506141508 31 360 8.0 12.0 0.00 0.21 0.04 93 1018.5
20260506141007 30 360 7.0 12.0 0.00 0.21 0.04 93 1018.6
20260506140504 30 360 9.0 13.0 0.00 0.21 0.04 93 1018.6
20260506140008 30 360 9.0 13.0 0.00 0.21 0.04 93 1018.6
20260506135504 30 360 9.0 13.0 0.00 0.21 0.04 93 1018.6
20260506135003 30 360 9.0 13.0 0.00 0.21 0.04 93 1018.4
20260506134508 30 360 8.0 13.0 0.00 0.21 0.04 93 1018.3
20260506134006 31 360 9.0 12.0 0.00 0.21 0.04 93 1018.3
20260506133504 30 360 9.0 14.0 0.00 0.21 0.04 93 1018.3
20260506133006 30 360 8.0 14.0 0.00 0.21 0.04 93 1018.2
20260506132509 31 360 10.0 14.0 0.00 0.21 0.04 93 1018.0
20260506132009 31 360 4.0 12.0 0.00 0.21 0.04 93 1018.0
20260506131532 31 360 6.0 12.0 0.00 0.21 0.04 93 1018.1
20260506131006 30 360 8.0 13.0 0.00 0.21 0.04 93 1017.8
20260506130507 30 360 7.0 18.0 0.00 0.21 0.04 93 1017.7
20260506130008 31 360 11.0 18.0 0.00 0.21 0.04 93 1017.6
20260506125502 31 360 13.0 17.0 0.00 0.21 0.04 93 1017.6
20260506125003 31 360 8.0 14.0 0.00 0.21 0.04 93 1017.4
20260506124509 31 360 10.0 14.0 0.00 0.21 0.04 93 1017.3
20260506124008 31 360 8.0 12.0 0.00 0.21 0.04 93 1017.0
20260506123503 31 360 8.0 13.0 0.00 0.21 0.04 93 1016.8
20260506123015 31 360 7.0 13.0 0.00 0.21 0.04 93 1017.0
20260506122508 31 360 10.0 13.0 0.00 0.21 0.04 93 1016.8
20260506122006 31 360 10.0 13.0 0.00 0.21 0.04 93 1016.7
20260506121507 31 360 9.0 13.0 0.00 0.21 0.04 93 1016.6
20260506121008 31 360 8.0 13.0 0.00 0.21 0.04 93 1016.7
20260506120504 31 360 8.0 14.0 0.00 0.21 0.04 93 1016.6
20260506120017 31 360 7.0 14.0 0.00 0.21 0.04 93 1016.5
20260506115506 31 360 9.0 12.0 0.00 0.21 0.04 93 1016.4
20260506115005 31 360 6.0 11.0 0.00 0.21 0.04 93 1016.3
20260506114511 32 360 7.0 11.0 0.00 0.21 0.04 93 1016.3
20260506114007 32 360 5.0 9.0 0.00 0.21 0.04 93 1016.1
20260506113504 32 360 3.0 8.0 0.00 0.21 0.04 93 1016.0
20260506113012 32 360 4.0 8.0 0.00 0.21 0.04 93 1016.0
20260506112510 32 360 4.0 8.0 0.00 0.21 0.04 93 1016.2
20260506112007 32 360 4.0 8.0 0.00 0.21 0.04 93 1016.2
20260506111510 32 360 5.0 8.0 0.00 0.21 0.04 93 1016.2
20260506111010 31 360 5.0 8.0 0.00 0.21 0.04 93 1016.2
20260506110507 31 360 4.0 6.0 0.00 0.21 0.04 92 1016.1
20260506110020 31 360 4.0 6.0 0.00 0.21 0.04 92 1016.1
20260506105504 31 360 3.0 9.0 0.00 0.21 0.04 92 1016.0
20260506105007 31 360 4.0 9.0 0.00 0.21 0.04 92 1015.9
20260506104512 32 360 5.0 9.0 0.00 0.21 0.04 92 1015.8
20260506104006 32 360 5.0 9.0 0.00 0.21 0.04 92 1015.8
20260506103507 32 360 4.0 9.0 0.00 0.21 0.04 92 1015.8
20260506103029 32 360 4.0 11.0 0.00 0.21 0.04 92 1015.9
20260506102508 32 360 5.0 12.0 0.00 0.21 0.04 92 1015.8
20260506102010 32 360 7.0 12.0 0.00 0.21 0.04 92 1015.7
20260506101524 32 360 5.0 9.0 0.00 0.21 0.04 92 1015.8
20260506101006 32 360 3.0 5.0 0.00 0.21 0.04 92 1015.7
20260506100511 32 360 2.0 3.0 0.00 0.21 0.04 92 1015.7
20260506100025 32 360 2.0 3.0 0.00 0.21 0.04 92 1015.7
20260506095510 32 360 0.0 2.0 0.00 0.21 0.04 92 1015.7
20260506095008 32 360 0.0 0.0 0.00 0.21 0.04 92 1015.7
20260506094518 32 360 0.0 0.0 0.00 0.21 0.04 92 1015.6
20260506094009 32 360 0.0 1.0 0.00 0.21 0.04 92 1015.6
20260506093507 32 360 0.0 1.0 0.00 0.21 0.04 92 1015.5
20260506093014 32 360 0.0 1.0 0.00 0.21 0.04 92 1015.5
20260506092510 32 360 0.0 0.0 0.00 0.21 0.04 92 1015.3
20260506092014 32 360 0.0 0.0 0.00 0.21 0.04 92 1015.4
20260506091522 32 360 0.0 0.0 0.00 0.21 0.04 92 1015.4
20260506091007 32 360 0.0 0.0 0.00 0.21 0.04 92 1015.4
20260506090507 32 360 0.0 0.0 0.01 0.21 0.04 92 1015.3
20260506090024 32 360 0.0 0.0 0.01 0.21 0.04 92 1015.2
20260506085513 32 360 0.0 0.0 0.01 0.21 0.04 92 1015.3
20260506085003 33 360 0.0 0.0 0.01 0.21 0.04 92 1015.3
20260506084503 33 360 0.0 0.0 0.01 0.21 0.04 92 1015.2
20260506084003 33 360 0.0 0.0 0.01 0.21 0.04 92 1015.2
20260506083504 33 360 0.0 0.0 0.01 0.21 0.04 92 1015.2
20260506083008 33 360 0.0 0.0 0.02 0.21 0.04 92 1015.1
20260506082504 33 360 0.0 2.0 0.02 0.21 0.04 92 1015.2
20260506082003 33 360 0.0 2.0 0.02 0.21 0.04 92 1015.2
20260506081503 33 360 1.0 2.0 0.02 0.21 0.04 92 1015.2
20260506081004 34 360 0.0 0.0 0.02 0.21 0.04 92 1015.3
20260506080503 34 360 0.0 0.0 0.01 0.20 0.03 92 1015.2
20260506073504 34 360 0.0 0.0 0.01 0.20 0.03 92 1015.4
20260506073009 34 360 0.0 0.0 0.00 0.19 0.02 92 1015.4
20260506072504 34 360 0.0 0.0 0.01 0.19 0.02 92 1015.5
20260506072003 34 360 0.0 0.0 0.01 0.19 0.02 92 1015.5
20260506071511 34 360 0.0 2.0 0.01 0.19 0.02 92 1015.5
20260506071004 33 360 0.0 3.0 0.01 0.19 0.02 92 1015.6
20260506070507 33 360 1.0 3.0 0.01 0.19 0.02 92 1015.7
20260506062505 33 360 1.0 3.0 0.02 0.18 0.01 92 1015.7
20260506062005 33 360 0.0 2.0 0.03 0.18 0.01 92 1015.7
20260506061509 33 360 1.0 2.0 0.03 0.18 0.01 91 1015.8
20260506061006 33 360 0.0 0.0 0.03 0.18 0.01 91 1015.6
20260506060503 33 360 0.0 0.0 0.04 0.18 0.01 91 1015.4
20260506051005 34 360 3.0 5.0 0.04 0.15 0.15 91 1015.4
20260506050505 34 360 2.0 6.0 0.03 0.14 0.14 91 1015.2
20260506045007 35 360 3.0 11.0 0.03 0.13 0.13 91 1015.3
20260506044516 35 360 7.0 11.0 0.02 0.12 0.12 91 1015.4
20260506044003 35 360 6.0 11.0 0.02 0.12 0.12 91 1015.2
20260506043506 35 360 5.0 12.0 0.02 0.12 0.12 91 1015.3
20260506043020 35 360 7.0 12.0 0.02 0.12 0.12 91 1015.3
20260506042503 35 360 4.0 11.0 0.02 0.12 0.12 90 1015.2
20260506042004 35 360 3.0 11.0 0.01 0.11 0.11 90 1015.0
20260506041514 35 360 7.0 12.0 0.02 0.11 0.11 90 1015.2
20260506041006 35 360 6.0 12.0 0.02 0.11 0.11 90 1015.1
20260506040506 35 360 8.0 12.0 0.02 0.11 0.11 90 1015.2
20260506040022 35 360 3.0 10.0 0.02 0.11 0.11 90 1015.0
20260506035507 35 360 6.0 10.0 0.01 0.10 0.10 90 1015.1
20260506035007 36 360 6.0 11.0 0.01 0.10 0.10 90 1015.4
20260506034512 36 360 7.0 11.0 0.01 0.10 0.10 89 1015.2
20260506034009 36 360 4.0 8.0 0.01 0.10 0.10 89 1015.2
20260506033508 36 360 2.0 9.0 0.01 0.10 0.10 89 1015.2
20260506033015 36 360 3.0 9.0 0.01 0.10 0.10 89 1015.2
20260506032506 36 360 5.0 10.0 0.01 0.10 0.10 89 1015.0
20260506032012 36 360 4.0 10.0 0.01 0.10 0.10 89 1014.8
20260506031511 36 360 5.0 9.0 0.00 0.09 0.09 89 1014.7
20260506031007 36 360 5.0 10.0 0.00 0.09 0.09 89 1014.5
20260506030510 37 360 4.0 10.0 0.00 0.09 0.09 89 1014.2
20260506030027 37 360 7.0 10.0 0.00 0.09 0.09 88 1014.1
20260506025508 37 360 1.0 6.0 0.00 0.09 0.09 88 1013.9
20260506025006 37 360 2.0 6.0 0.00 0.09 0.09 88 1014.0
20260506024539 37 360 3.0 6.0 0.00 0.09 0.09 88 1013.9
20260506024008 37 360 2.0 6.0 0.00 0.09 0.09 88 1013.7
20260506023506 37 360 3.0 5.0 0.00 0.09 0.09 88 1013.7
20260506023012 37 360 0.0 6.0 0.00 0.09 0.09 88 1014.0
20260506022507 37 360 2.0 6.0 0.00 0.09 0.09 88 1014.1
20260506022007 37 360 2.0 5.0 0.00 0.09 0.09 88 1013.9
20260506021510 37 360 2.0 5.0 0.00 0.09 0.09 87 1013.9
20260506021009 37 360 1.0 4.0 0.00 0.09 0.09 88 1013.8
20260506020507 37 360 2.0 4.0 0.00 0.09 0.09 87 1013.7
20260506020020 37 360 1.0 4.0 0.00 0.09 0.09 87 1013.5
20260506015506 37 360 0.0 4.0 0.00 0.09 0.09 87 1013.4
20260506015009 37 360 0.0 4.0 0.00 0.09 0.09 87 1013.2
20260506014518 37 360 1.0 5.0 0.00 0.09 0.09 87 1013.1
20260506014009 37 360 2.0 5.0 0.00 0.09 0.09 87 1012.8
20260506013509 37 360 1.0 4.0 0.00 0.09 0.09 87 1012.5
20260506013016 37 360 1.0 8.0 0.00 0.09 0.09 87 1012.4
20260506012507 37 360 0.0 11.0 0.00 0.09 0.09 87 1012.3
20260506012006 37 360 6.0 11.0 0.00 0.09 0.09 87 1011.9
20260506011512 37 360 8.0 11.0 0.00 0.09 0.09 87 1011.6
20260506011008 37 360 4.0 11.0 0.00 0.09 0.09 86 1011.8
20260506010508 37 360 5.0 11.0 0.01 0.09 0.09 86 1011.8
20260506010014 37 360 4.0 8.0 0.02 0.09 0.09 86 1011.9
20260506005509 37 360 4.0 8.0 0.03 0.09 0.09 86 1012.2
20260506005007 37 360 2.0 5.0 0.04 0.09 0.09 86 1012.3
20260506004517 37 360 2.0 5.0 0.06 0.09 0.09 86 1012.2